Location: Bieg
(49.3499°N, 10.3835°E)
Time: 00:42:19
(UTC+00:00)

Cosmos 1892 - Pass Details

Date: 23 May 2024
Orbit: 455 x 469 km, 82.5° (Epoch: 14 June)

Event Time Altitude Azimuth Distance (km) Brightness Sun altitude
Exits shadow 02:40:22 - 191° (S) 2,139 5.3 -6.5°
Reaches altitude 10° 02:41:39 10° 192° (SSW) 1,602 4.7 -6.4°
Maximum altitude 02:45:09 81° 281° (W) 471 2.4 -5.9°
Drops below altitude 10° 02:48:40 10° 8° (N) 1,610 6.0 -5.5°
Sets 02:50:45 0° 9° (N) 2,488 7.1 -5.3°
